Regional Weather Roundup
Issued by NWS

Home | Current Version | Previous Version | Graphics & Text | Print | Product List | Glossary On
Versions: 1 2 3 4 5 6 7 8 9 10 11 12 13 14 15 16 17 18 19 20 21 22 23 24 25 26 27 28 29 30 31 32 33 34 35 36 37 38 39 40 41 42 43 44 45 46 47 48 49 50
000
ASUS43 KIND 171009
RWRIN

WEATHER ROUNDUP FOR INDIANA
NATIONAL WEATHER SERVICE INDIANAPOLIS IN
500 AM EST WED DEC 17 2014

NOTE: "FAIR" INDICATES FEW OR NO CLOUDS BELOW 12,000 FEET WITH NO
SIGNIFICANT WEATHER AND/OR OBSTRUCTIONS TO VISIBILITY.

* - STATION DOES NOT REPORT WEATHER SUCH AS PRECIPITATION OR FOG.

+ - STATION NOT QUALITY CONTROLLED BY THE NATIONAL WEATHER SERVICE.
    USE DATA WITH CAUTION...ESPECIALLY DEWPOINT AND RELATIVE
    HUMIDITY OBSERVATIONS.

INZ001>003-010>013-019-020-171100-
NORTHWEST INDIANA

CITY           SKY/WX    TMP DP  RH WIND       PRES   REMARKS
KNOX *+        CLOUDY    30  25  81 W14G20    30.16R WCI  19
LA PORTE +     CLOUDY    31  26  78 W12G18    30.16R WCI  22
MICHIGAN CITY+ CLOUDY    30  23  74 W9        30.17R WCI  22
MONTICELLO +   CLOUDY    29  25  85 W10G18    30.18R WCI  19
RENSSELAER +   CLOUDY    30  28  93 W14G20    30.19S WCI  20
VALPARAISO     CLOUDY    28  22  78 W12G20    30.17R WCI  18

$$

LMZ046-743>745-171100-
SOUTHERN LAKE MICHIGAN

STATION/POSITION TIME  TEMP WIND        PRES
                       AIR  DIR/SP/G
                 (UTC) (F)  (DEG/KT/KT) (MB)

$$

INZ004-005-014>016-021>024-171100-
NORTH CENTRAL INDIANA

CITY           SKY/WX    TMP DP  RH WIND       PRES   REMARKS
GOSHEN         CLOUDY    31  25  78 W15G24    30.11R WCI  20
LOGANSPORT +   CLOUDY    30  25  80 W15       30.18R WCI  19
PERU/GRISSOM   CLOUDY    29  29  99 NW15      30.16R WCI  18
ROCHESTER +    CLOUDY    32  30  93 W9        30.15R WCI  24
SOUTH BEND     CLOUDY    31  24  75 NW20      30.14R WCI  19
WARSAW +       CLOUDY    32  27  80 NW13G18   30.12R WCI  22

$$

INZ006>009-017-018-025>027-171100-
NORTHEAST INDIANA

CITY           SKY/WX    TMP DP  RH WIND       PRES   REMARKS
ANGOLA *+      CLOUDY    30  27  86 NW12      30.05S WCI  21
AUBURN +       CLOUDY    32  27  80 W15G25    30.09R WCI  22
FORT WAYNE     CLOUDY    32  28  85 W13       30.11R WCI  22
HUNTINGTON +   CLOUDY    30  28  91 W15       30.13R WCI  19

$$

INZ028-029-035-036-043>045-051>053-171100-
WEST CENTRAL INDIANA

CITY           SKY/WX    TMP DP  RH WIND       PRES   REMARKS
GREENCASTLE +  CLOUDY    28  25  86 W5        30.23R WCI  23
LAFAYETTE      CLOUDY    26  22  84 NW13      30.21R WCI  15
TERRE HAUTE    CLOUDY    27  22  81 W13       30.27R WCI  16

$$

INZ030>032-037>040-046>048-054>057-064-065-171100-
CENTRAL INDIANA

CITY           SKY/WX    TMP DP  RH WIND       PRES   REMARKS
CP ATTERBURY + CLOUDY    30  28  93 MISG      30.23R
FRANKFORT +    CLOUDY    28  28 100 W12G20    30.20S WCI  18
INDIANAPOLIS   CLOUDY    27  24  89 W15       30.20R WCI  15
-EAGLE CREEK   CLOUDY    27  25  92 NW12      30.20R WCI  17
KOKOMO *+      CLOUDY    30  25  80 NW14      30.16R WCI  20
MARION +       CLOUDY    30  28  93 W18       30.16R WCI  18
MT COMFORT *+  CLOUDY    28  28 100 W13       30.20R WCI  18
SHELBYVILLE    CLOUDY    31  26  82 W14       30.19R WCI  21
ZIONSVILLE +   CLOUDY    28  24  82 W8G20     30.20R WCI  20

$$

INZ033-034-041-042-049-050-058-059-171100-
EAST CENTRAL INDIANA

CITY           SKY/WX    TMP DP  RH WIND       PRES   REMARKS
MUNCIE         CLOUDY    30  25  81 NW16      30.15R WCI  19

$$

INZ060-061-067>069-081>083-085>088-171100-
SOUTHWEST INDIANA

CITY           SKY/WX    TMP DP  RH WIND       PRES   REMARKS
EVANSVILLE     CLOUDY    33  24  69 NW7       30.29F WCI  27
HUNTINGBURG *+ CLOUDY    32  25  74 NW8       30.28S WCI  25
WASHINGTON +   CLOUDY    30  28  90 NW14      30.27S WCI  20

$$

INZ062-063-066-070>080-084-089>092-171100-
SOUTH CENTRAL AND SOUTHEAST INDIANA

CITY           SKY/WX    TMP DP  RH WIND       PRES   REMARKS
BLOOMINGTON    CLOUDY    28  25  88 W10       30.23R WCI  19
SEYMOUR +      CLOUDY    32  28  86 W14G20    30.23  WCI  22

$$




USA.gov is the U.S. government's official web portal to all federal, state and local government web resources and services.